Flag for U.S.A. Weather past 2 weeks in Sheboygan, Wisconsin, U.S.A.

Now
75 °F

Sunny.


Feels Like: 75 °F
Forecast: 64 / 77 °F
Wind: 8 mph from South

Location: Sheboygan County Memorial Airport

Current Time: Aug 31, 2015 at 7:08:32 PM

Latest Report: Aug 31, 2015 at 5:53 PM


Visibility: 8 mi

Pressure: 30.00 "Hg

Humidity: 82%

Dew point: 69 °F

Location of SheboyganLocation

Historic Weather in Sheboygan — Graph

°F

Sheboygan temperature yesterday

Maximum temperature yesterday: 73 °F (at 2:53 PM)
Minimum temperature yesterday: 54 °F (at 2:53 AM)
Average temperature yesterday: 62 °F

Past Weeks' High & Low Weather Summary

 TemperatureHumidityPressure
High85 °F (Aug 16, 5:53 PM)100% (Aug 18, 5:53 AM)30.20 "Hg (Aug 18, 5:53 AM)
Low49 °F (Aug 26, 11:53 PM)52% (Aug 21, 12:53 PM)29.56 "Hg (Aug 19, 9:53 AM)
Average64 °F82%29.96 "Hg
* Reported Aug 16 5:53 PM — Aug 31 5:53 PM, Sheboygan, Weather by CustomWeather, © 2015

Note: Actual official high and low records may vary slightly from our data, if they occured in-between our weather recording intervals... More about our weather records

Advertising

Sheboygan weather history for previous 24 hours

 ConditionsComfort  
Time TempWeatherWind HumidityBarometerVisibility
5:53 PM
Mon, Aug 31
75 °FSunny.8 mph82%30.00 "Hg8 mi
4:53 PM79 °FSunny.10 mph69%30.00 "Hg10 mi
3:53 PM78 °FSunny.N/A71%30.00 "Hg10 mi
2:53 PM77 °FSunny.7 mph71%30.02 "Hg10 mi
1:53 PM76 °FPassing clouds.10 mph74%30.03 "Hg10 mi
12:53 PM77 °FPartly sunny.8 mph71%30.04 "Hg10 mi
11:53 AM75 °FPartly sunny.8 mph74%30.06 "Hg10 mi
10:53 AM74 °FPartly sunny.8 mph79%30.05 "Hg10 mi
9:53 AM72 °FPassing clouds.8 mph81%30.05 "Hg10 mi
8:53 AM66 °FSunny.6 mph96%30.04 "Hg8 mi
7:53 AM62 °FFog.3 mph100%30.04 "Hg5 mi
7:03 AM57 °FFog.3 mph100%30.04 "Hg2 mi
6:55 AM57 °FFog.3 mph100%30.04 "Hg1 mi
6:00 AM57 °FFog.No wind100%30.03 "Hg0 mi
4:53 AM58 °FFog.3 mph100%30.01 "Hg3 mi
3:53 AM58 °FFog.3 mph97%30.02 "Hg5 mi
2:53 AM58 °FFog.5 mph100%30.01 "Hg4 mi
2:02 AM57 °FFog.6 mph96%30.01 "Hg1 mi
1:53 AM57 °FFog.3 mph100%30.01 "Hg0 mi
12:53 AM58 °FFog.3 mph97%30.01 "Hg1 mi
11:58 PM
Sun, Aug 30
58 °FFog.3 mph97%30.02 "Hg2 mi
10:53 PM60 °FFog.6 mph96%30.01 "Hg4 mi
9:53 PM61 °FFog.7 mph97%30.02 "Hg5 mi
8:53 PM61 °FFog.5 mph97%30.02 "Hg6 mi
7:53 PM63 °FFog.5 mph93%30.01 "Hg6 mi
Weather by CustomWeather, © 2015

See weather overviewHow to use our weather pages